[[{"header":{"parameterUnit":"m.s-1","parameterCategory":1,"la1":30.2991,"la2":30.254,"lo1":-89.0895,"lo2":-89.0444,"dy":0.0017,"dx":0.0017,"nx":28,"ny":28,"refTime":"2024-03-18T21:00:00:Z","depth":0,"parameterNumber":2,"parameterNumberName":"U-component_of_WINDS"},"data":[0,0,0,0,0,0,0,0,0,0,0,0,0,0,0,0,0,0,0,0,0,0,0,0,0,0,0,0,0,0,0,0,0,0,0,0,0,0,0,0,0,0,0,0,0,0,0,0,0,0,0,0,0,0,0,0,0,0,2.7082,2.7083,0,2.7142,2.7143,2.7143,2.7122,2.7121,2.7119,2.7118,2.7178,2.718,2.7183,0,0,0,0,0,0,0,0,0,0,0,0,0,2.6945,2.6948,2.7082,2.7083,2.7083,2.7142,2.7143,2.7143,2.7122,2.7121,2.7119,2.7118,2.7177,2.718,2.7183,0,0,0,0,0,0,0,0,0,0,0,0,0,2.7005,2.6949,2.7082,2.708,2.708,2.7142,2.7143,2.7144,2.7123,2.7121,2.7119,2.7117,2.7176,2.718,2.7184,2.725,0,0,2.7197,2.7199,0,0,0,0,0,0,0,0,2.7001,2.701,2.7079,2.708,2.7081,2.7123,2.7116,2.7179,2.7123,2.7107,2.7118,2.7116,2.7161,2.7166,2.7182,2.7253,2.7255,2.7197,2.72,2.7201,2.7203,0,0,0,0,0,0,0,2.6997,2.7007,2.7106,2.708,2.7081,2.7075,2.7081,2.7128,2.7144,2.7108,2.7106,2.7114,2.7161,2.7178,2.7183,2.7256,2.7197,2.7201,2.7203,2.7205,2.738,2.7382,0,0,0,0,0,0,2.6993,2.7004,2.7104,2.7107,2.7035,2.7079,2.7086,2.7111,2.7143,2.7147,2.7116,2.7113,2.7171,2.7178,2.7185,2.7261,2.7201,2.7205,2.7208,2.7378,2.738,2.7383,0,0,0,0,0,0,2.699,2.7002,2.7101,2.7055,2.7067,2.7083,2.7112,2.7113,2.713,2.7149,2.7152,2.713,2.717,2.7179,2.7233,2.7263,2.7207,2.7211,2.7375,2.7379,2.7382,2.7416,0,0,0,0,0,0,2.6987,2.7001,2.7028,2.7056,2.707,2.715,2.7114,2.7116,2.7138,2.7135,2.7164,2.7166,2.7169,2.7227,2.7237,2.7268,2.7214,2.7373,2.7377,2.7381,2.7412,2.742,2.7427,0,0,0,0,0,2.6982,2.7035,2.7029,2.7041,2.7103,2.7152,2.7159,2.7162,2.714,2.7166,2.7178,2.7166,2.7259,2.7233,2.7244,2.7276,2.7371,2.7376,2.738,2.7409,2.7418,2.7426,0,0,0,0,0,0,2.701,2.7039,2.7033,2.7097,2.7122,2.7148,2.718,2.7172,2.7203,2.7199,2.72,2.7207,2.7262,2.7275,2.7245,2.734,2.7311,2.7319,2.7329,2.7338,2.7345,2.734,2.7218,0,0,0,0,0,2.7024,2.7062,2.7085,2.7139,2.7152,2.7164,2.7185,2.7185,2.7211,2.7221,2.7237,2.7261,2.7295,2.7318,2.7351,2.7415,2.7419,2.7442,2.745,2.7455,2.7461,2.7492,2.7501,2.7398,2.7398,2.7398,0,0,2.7053,2.7073,2.7097,2.7146,2.7165,2.7202,2.7173,2.7215,2.7242,2.7227,2.7278,2.7291,2.7318,2.7376,2.7403,2.7389,2.749,2.7461,2.7466,2.7468,2.7498,2.7507,2.7516,2.7402,2.7401,2.74,0,0,2.7123,2.7144,2.719,2.721,2.7239,2.7246,2.7257,2.7284,2.7292,2.7344,2.7332,2.7364,2.7425,2.7443,2.746,2.7536,2.7525,2.7547,2.7583,2.7614,2.7622,2.7629,2.7652,2.7661,2.7553,2.7553,2.7553,0,2.7155,2.7212,2.7215,2.7256,2.7277,2.7265,2.731,2.7329,2.7368,2.7381,2.7366,2.7439,2.7457,2.7517,2.7535,2.7551,2.7561,2.7542,2.7621,2.7628,2.7634,2.7657,2.7666,2.7555,2.7555,2.7555,2.7555,0,2.7247,2.7286,2.732,2.7357,2.7381,2.7425,2.7433,2.7457,2.7454,2.7463,2.7514,2.7535,2.757,2.7585,2.7583,2.7645,2.7634,2.762,2.759,2.7646,2.7667,2.7676,2.7558,2.7558,2.7557,2.7556,0,0,2.7337,2.7374,2.7386,2.7401,2.7432,2.7461,2.7503,2.7538,2.7557,2.7584,2.7617,2.7667,2.7653,2.7673,2.7673,2.77,2.7754,2.7681,2.7682,2.7691,2.7819,2.7827,2.7837,2.7748,2.775,2.7751,2.7815,0,2.7407,2.7481,2.7484,2.755,2.7584,2.7574,2.761,2.7631,2.764,2.767,2.7679,2.7713,2.7694,2.7705,2.7732,2.7742,2.7779,2.7738,2.7776,2.7777,2.7766,2.7849,2.7859,2.7918,2.7824,2.7825,2.7826,0,2.7499,2.7527,2.7597,2.762,2.7635,2.7667,2.7698,2.7727,2.7751,2.7755,2.7776,2.7772,2.7812,2.7783,2.7837,2.7809,2.7825,2.7832,2.7835,2.7836,2.7803,2.7849,2.7938,2.7945,2.784,2.7839,2.7838,0,2.7552,2.7609,2.7657,2.7671,2.77,2.7722,2.7735,2.7757,2.7777,2.7804,2.7816,2.7847,2.7863,2.7887,2.789,2.787,2.7943,2.7916,2.7945,2.7945,2.7959,2.7958,2.8049,2.7975,2.7975,2.7975,2.7975,0,2.7629,2.7671,2.7681,2.771,2.7756,2.7759,2.7804,2.7815,2.7834,2.7864,2.7858,2.7885,2.789,2.7918,2.7921,2.7963,2.7972,2.7975,2.7974,2.7973,2.7973,2.7982,2.7976,2.7977,2.7977,2.7976,2.7976,0,2.7696,2.7705,2.7755,2.7779,2.7785,2.7818,2.7837,2.7864,2.7872,2.7909,2.7918,2.793,2.7963,2.7969,2.8008,2.801,2.8059,2.8057,2.8051,2.805,2.8078,2.8074,2.8175,2.8187,2.8109,2.811,2.811,0,2.7742,2.7774,2.78,2.782,2.7834,2.7866,2.7885,2.7889,2.791,2.7938,2.7961,2.7993,2.8018,2.8071,2.8082,2.8111,2.8107,2.8141,2.8111,2.8108,2.8103,2.81,2.8102,2.8145,2.8146,2.8147,2.8147,0,2.7823,2.7825,2.7854,2.7884,2.7908,2.7932,2.7954,2.7971,2.7977,2.8,2.8033,2.8053,2.8092,2.8123,2.8152,2.8164,2.8155,2.8157,2.8164,2.8162,2.8156,2.8156,2.8063,2.8154,2.8153,2.8153,2.8152,2.8152,2.7879,2.7905,2.7927,2.7959,2.7976,2.7997,2.8022,2.8033,2.8061,2.8093,2.8094,2.8129,2.8149,2.8187,2.8201,2.8227,2.8216,2.8229,2.8231,2.8233,2.8234,2.8155,2.8233,2.8233,2.8233,2.8233,2.8232,0,2.7956,2.7969,2.7998,2.803,2.8054,2.8046,2.8069,2.809,2.8121,2.8142,2.8166,2.8203,2.8233,2.8246,2.8274,2.8293,2.829,2.83,2.8297,2.8299,2.8244,2.8233,2.8302,2.8302,2.8302,2.8302,2.8302,2.8302,2.7999,2.8042,2.8046,2.8097,2.811,2.8145,2.8159,2.8177,2.8193,2.8234,2.8258,2.8267,2.8284,2.8313,2.8339,2.8342,2.8351,2.8362,2.8363,2.8311,2.8304,2.8297,2.8286,2.8365,2.8365,2.8416,2.8416,2.8417]},{"header":{"parameterUnit":"m.s-1","parameterCategory":1,"la1":30.2991,"la2":30.254,"lo1":-89.0895,"lo2":-89.0444,"dy":0.0017,"dx":0.0017,"nx":28,"ny":28,"refTime":"2024-03-18T21:00:00:Z","depth":0,"parameterNumber":3,"parameterNumberName":"V-component_of_WINDS"},"data":[0,0,0,0,0,0,0,0,0,0,0,0,0,0,0,0,0,0,0,0,0,0,0,0,0,0,0,0,0,0,0,0,0,0,0,0,0,0,0,0,0,0,0,0,0,0,0,0,0,0,0,0,0,0,0,0,0,0,1.7383,1.7383,0,1.7375,1.7375,1.7375,1.7351,1.7351,1.735,1.735,1.734,1.734,1.734,0,0,0,0,0,0,0,0,0,0,0,0,0,1.7377,1.7377,1.7383,1.7383,1.7383,1.7375,1.7375,1.7375,1.7352,1.7351,1.735,1.735,1.734,1.734,1.734,0,0,0,0,0,0,0,0,0,0,0,0,0,1.7375,1.7377,1.7383,1.7371,1.7369,1.7375,1.7375,1.7375,1.7352,1.7351,1.735,1.735,1.734,1.734,1.734,1.7357,0,0,1.7341,1.7341,0,0,0,0,0,0,0,0,1.7375,1.7375,1.7373,1.7371,1.737,1.7363,1.7369,1.7369,1.7352,1.7358,1.735,1.7349,1.7348,1.7348,1.7348,1.7356,1.7356,1.7341,1.7341,1.7341,1.7342,0,0,0,0,0,0,0,1.7375,1.7375,1.738,1.7372,1.7371,1.7364,1.7363,1.7368,1.7357,1.7358,1.7356,1.7355,1.7347,1.7348,1.7347,1.7356,1.7341,1.7341,1.7342,1.7342,1.7375,1.7376,0,0,0,0,0,0,1.7377,1.7376,1.738,1.738,1.7371,1.7365,1.7364,1.7366,1.7357,1.7355,1.7356,1.7354,1.7347,1.7347,1.7347,1.7364,1.7341,1.7342,1.7342,1.7374,1.7375,1.7376,0,0,0,0,0,0,1.7377,1.7378,1.738,1.7377,1.7377,1.7366,1.7369,1.7367,1.7367,1.7356,1.7354,1.7358,1.7347,1.7346,1.7354,1.7363,1.7342,1.7342,1.7373,1.7375,1.7376,1.74,0,0,0,0,0,0,1.7377,1.7378,1.7385,1.7378,1.7377,1.7389,1.7369,1.7367,1.7367,1.7365,1.7358,1.7356,1.7346,1.7354,1.7354,1.7363,1.7342,1.7373,1.7374,1.7375,1.7398,1.7401,1.7404,0,0,0,0,0,1.7377,1.7392,1.7386,1.7386,1.7386,1.7389,1.7389,1.7378,1.7368,1.7375,1.7367,1.7356,1.7363,1.7355,1.7355,1.7365,1.7372,1.7374,1.7375,1.7397,1.7401,1.7404,0,0,0,0,0,0,1.7402,1.7391,1.7384,1.7397,1.7394,1.7386,1.7393,1.7383,1.7383,1.7381,1.7367,1.7365,1.7374,1.737,1.7362,1.7379,1.7365,1.7367,1.7381,1.7385,1.7388,1.7389,1.7343,0,0,0,0,0,1.7408,1.7413,1.7404,1.7416,1.7415,1.7405,1.7406,1.7397,1.7394,1.7392,1.7386,1.7382,1.7383,1.7384,1.7384,1.7397,1.7394,1.7404,1.7407,1.741,1.7411,1.7416,1.7419,1.7381,1.7381,1.7381,0,0,1.7423,1.7418,1.7422,1.7421,1.7418,1.7421,1.7404,1.7409,1.7411,1.7393,1.7399,1.7394,1.7389,1.7399,1.7403,1.7396,1.7421,1.7412,1.7414,1.7414,1.7418,1.7421,1.7424,1.7382,1.7382,1.7382,0,0,1.7451,1.7448,1.7457,1.7454,1.745,1.7442,1.7445,1.7437,1.7433,1.7439,1.7425,1.7427,1.743,1.7426,1.7424,1.7449,1.7438,1.7449,1.7466,1.747,1.7473,1.7476,1.7483,1.7486,1.7451,1.7451,1.7451,0,1.7469,1.7475,1.7464,1.7469,1.7468,1.7452,1.7461,1.7458,1.7454,1.7453,1.7445,1.7447,1.7442,1.745,1.7456,1.7456,1.7456,1.745,1.7474,1.7476,1.7479,1.7485,1.7488,1.7452,1.7452,1.7452,1.7452,0,1.7497,1.7501,1.7509,1.7505,1.7505,1.7513,1.7501,1.7502,1.7494,1.7487,1.7492,1.7486,1.7484,1.7485,1.7477,1.7491,1.7487,1.7477,1.7462,1.7484,1.749,1.7492,1.7454,1.7454,1.7453,1.7453,0,0,1.754,1.7529,1.7532,1.7529,1.7522,1.7525,1.753,1.7528,1.7529,1.7526,1.7529,1.7531,1.7521,1.7519,1.751,1.7515,1.7532,1.7504,1.7503,1.7508,1.7545,1.7552,1.7555,1.7525,1.7525,1.7526,1.7545,0,1.7566,1.7575,1.7564,1.7575,1.7578,1.7562,1.7566,1.7562,1.7555,1.7555,1.7547,1.7548,1.7536,1.7534,1.7538,1.7529,1.7539,1.7528,1.7526,1.7526,1.7527,1.7559,1.7567,1.7585,1.7548,1.7548,1.7548,0,1.7597,1.7595,1.7606,1.7597,1.7598,1.7602,1.7598,1.76,1.7593,1.7588,1.7585,1.7574,1.7577,1.7564,1.7567,1.756,1.7558,1.7554,1.7554,1.7553,1.7538,1.7557,1.7591,1.7594,1.7552,1.7552,1.7552,0,1.7625,1.7626,1.7632,1.7631,1.762,1.7623,1.7619,1.7612,1.7611,1.7608,1.7606,1.7604,1.7602,1.7599,1.7587,1.7578,1.7591,1.7577,1.7585,1.7585,1.7588,1.7588,1.7621,1.7589,1.7589,1.7589,1.7589,0,1.7654,1.7661,1.7645,1.7649,1.7656,1.7643,1.765,1.7644,1.7637,1.7639,1.7624,1.7626,1.761,1.7609,1.76,1.7603,1.7603,1.7597,1.7594,1.7598,1.7598,1.7596,1.7594,1.759,1.759,1.7589,1.7589,0,1.7687,1.7677,1.7683,1.7672,1.7669,1.7675,1.7665,1.7667,1.7659,1.7661,1.7661,1.7648,1.7646,1.7633,1.7629,1.7622,1.7629,1.7624,1.7631,1.7629,1.7637,1.7636,1.767,1.7673,1.764,1.764,1.764,0,1.7706,1.7711,1.7701,1.7701,1.7697,1.7697,1.7696,1.7683,1.7682,1.7674,1.7677,1.7674,1.7671,1.7669,1.7658,1.7654,1.7648,1.766,1.7647,1.765,1.7646,1.7646,1.7646,1.7662,1.7663,1.7663,1.7664,0,1.774,1.7734,1.7733,1.7729,1.7728,1.7725,1.7721,1.7721,1.7706,1.7705,1.7704,1.7701,1.7696,1.7693,1.7687,1.7681,1.7669,1.7668,1.7669,1.7672,1.7676,1.7673,1.7637,1.7667,1.7667,1.7666,1.7666,1.7666,1.7765,1.7768,1.7761,1.776,1.7755,1.7751,1.7752,1.7744,1.7742,1.7737,1.7729,1.7728,1.772,1.771,1.7705,1.7703,1.7697,1.7699,1.7699,1.77,1.7701,1.7677,1.7702,1.7702,1.7702,1.7702,1.7702,0,1.7797,1.7791,1.779,1.7784,1.7783,1.7772,1.7767,1.7766,1.7765,1.7759,1.7756,1.7752,1.7749,1.7738,1.7732,1.7733,1.7727,1.7732,1.7731,1.7729,1.7708,1.7707,1.7736,1.7736,1.7736,1.7736,1.7736,1.7736,1.7813,1.7817,1.781,1.7811,1.7805,1.7804,1.7801,1.7797,1.7792,1.7789,1.7786,1.7778,1.7769,1.7763,1.7759,1.7755,1.7753,1.776,1.7754,1.7734,1.7731,1.7728,1.7727,1.776,1.776,1.7776,1.7776,1.7776]}]]